Time,TemperatureF,DewpointF,PressureIn,WindDirection,WindDirectionDegrees,WindSpeedMPH,WindSpeedGustMPH,Humidity,HourlyPrecipIn,Conditions,Clouds,dailyrainin,SolarRadiationWatts/m^2,SoftwareType,DateUTC
2014-04-19 00:00:00,28.0,24.0,-100.00,North,-999,0.0,-999.0,86,-99.99,,,-99.99,0.000000,,2014-04-19 05:00:00,
2014-04-19 00:43:00,28.0,24.0,-100.00,North,-999,0.0,-999.0,86,-99.99,,,-99.99,0.000000,,2014-04-19 05:43:00,
2014-04-19 00:52:00,28.0,24.0,-100.00,North,-999,0.0,-999.0,86,-99.99,,,-99.99,0.000000,,2014-04-19 05:52:00,
2014-04-19 01:00:00,29.0,24.0,-100.00,North,-999,0.0,-999.0,83,-99.99,,,-99.99,0.000000,,2014-04-19 06:00:00,
2014-04-19 01:42:00,29.0,24.0,-100.00,North,-999,0.0,-999.0,83,-99.99,,,-99.99,0.000000,,2014-04-19 06:42:00,
2014-04-19 01:52:00,29.0,24.0,-100.00,North,-999,0.0,-999.0,83,-99.99,,,-99.99,0.000000,,2014-04-19 06:52:00,
2014-04-19 02:00:00,29.0,25.0,-100.00,North,-999,0.0,-999.0,87,-99.99,,,-99.99,0.000000,,2014-04-19 07:00:00,
2014-04-19 02:42:00,29.0,25.0,-100.00,North,-999,0.0,-999.0,87,-99.99,,,-99.99,0.000000,,2014-04-19 07:42:00,
2014-04-19 02:53:00,29.0,25.0,-100.00,North,-999,0.0,-999.0,87,-99.99,,,-99.99,0.000000,,2014-04-19 07:53:00,
2014-04-19 03:00:00,29.0,27.0,-100.00,North,-999,0.0,-999.0,91,-99.99,,,-99.99,0.000000,,2014-04-19 08:00:00,
2014-04-19 03:42:00,29.0,27.0,-100.00,North,-999,0.0,-999.0,91,-99.99,,,-99.99,0.000000,,2014-04-19 08:42:00,
2014-04-19 03:52:00,29.0,27.0,-100.00,North,-999,0.0,-999.0,91,-99.99,,,-99.99,0.000000,,2014-04-19 08:52:00,
2014-04-19 04:00:00,30.0,28.0,-100.00,North,-999,0.0,-999.0,92,-99.99,,,-99.99,0.000000,,2014-04-19 09:00:00,
2014-04-19 04:44:00,30.0,28.0,-100.00,North,-999,0.0,-999.0,92,-99.99,,,-99.99,0.000000,,2014-04-19 09:44:00,
2014-04-19 04:54:00,30.0,28.0,-100.00,North,-999,0.0,-999.0,92,-99.99,,,-99.99,0.000000,,2014-04-19 09:54:00,
2014-04-19 05:00:00,28.0,27.0,-100.00,North,-999,0.0,-999.0,93,-99.99,,,-99.99,0.000000,,2014-04-19 10:00:00,
2014-04-19 05:42:00,28.0,27.0,-100.00,North,-999,0.0,-999.0,93,-99.99,,,-99.99,0.000000,,2014-04-19 10:42:00,
2014-04-19 05:54:00,28.0,27.0,-100.00,North,-999,0.0,-999.0,93,-99.99,,,-99.99,0.000000,,2014-04-19 10:54:00,
2014-04-19 06:00:00,28.0,26.0,-100.00,North,-999,0.0,-999.0,94,-99.99,,,-99.99,2.320000,,2014-04-19 11:00:00,
2014-04-19 06:43:00,28.0,26.0,-100.00,North,-999,0.0,-999.0,94,-99.99,,,-99.99,2.320000,,2014-04-19 11:43:00,
2014-04-19 06:52:00,28.0,26.0,-100.00,North,-999,0.0,-999.0,94,-99.99,,,-99.99,2.320000,,2014-04-19 11:52:00,
2014-04-19 07:00:00,30.0,28.0,-100.00,North,-999,0.0,-999.0,93,-99.99,,,-99.99,58.000000,,2014-04-19 12:00:00,
2014-04-19 07:42:00,30.0,28.0,-100.00,North,-999,0.0,-999.0,93,-99.99,,,-99.99,58.000000,,2014-04-19 12:42:00,
2014-04-19 07:52:00,30.0,28.0,-100.00,North,-999,0.0,-999.0,93,-99.99,,,-99.99,58.000000,,2014-04-19 12:52:00,
2014-04-19 08:00:00,32.0,30.0,-100.00,North,-999,0.0,-999.0,89,-99.99,,,-99.99,139.199997,,2014-04-19 13:00:00,
2014-04-19 08:42:00,32.0,30.0,-100.00,North,-999,0.0,-999.0,89,-99.99,,,-99.99,139.199997,,2014-04-19 13:42:00,
2014-04-19 08:52:00,32.0,30.0,-100.00,North,-999,0.0,-999.0,89,-99.99,,,-99.99,139.199997,,2014-04-19 13:52:00,
2014-04-19 09:00:00,36.0,30.0,-100.00,North,-999,0.0,-999.0,78,-99.99,,,-99.99,387.440002,,2014-04-19 14:00:00,
2014-04-19 09:42:00,36.0,30.0,-100.00,North,-999,0.0,-999.0,78,-99.99,,,-99.99,387.440002,,2014-04-19 14:42:00,
2014-04-19 09:52:00,36.0,30.0,-100.00,North,-999,0.0,-999.0,78,-99.99,,,-99.99,387.440002,,2014-04-19 14:52:00,
2014-04-19 10:44:00,38.0,30.0,-100.00,North,-999,0.0,-999.0,71,-99.99,,,-99.99,575.359985,,2014-04-19 15:44:00,